Location: �clusier
(49.9361°N, 2.7869°E)
Time: 22:32:00
(UTC+00:00)

Cosmos 1867 - Pass Details

Date: 16 June 2021
Orbit: 773 x 803 km, 65.0° (Epoch: 02 August)

Event Time Altitude Azimuth Distance (km) Brightness Sun altitude
Rises 23:22:51 0° 316° (NW) 3,322 7.7 -16.4°
Reaches altitude 10° 23:25:24 10° 309° (NW) 2,388 6.7 -16.5°
Maximum altitude 23:30:29 40° 242° (WSW) 1,177 4.3 -16.6°
Enters shadow 23:32:53 26° 193° (SSW) 1,529 4.5 -16.6°
